GEFSNGP_500_meanwind_096.txt.gz
Wind_Speed
15 15 10 8 7 9 12 12 13 15 15 17 20 19 18 17 17 16 15 15 16 16 16 17 18 18 19 20 21 22 23 24 25 27 30 32 34 36 37 38 39 40 41 41
14 14 12 11 11 12 13 13 15 15 16 19 20 20 19 19 18 18 17 17 17 17 17 18 19 20 20 21 23 24 24 25 27 29 31 33 35 37 39 40 41 42 42 42
14 14 14 12 12 13 13 14 14 15 18 19 20 21 20 19 19 19 19 18 18 18 18 19 20 21 22 23 24 25 26 27 29 31 33 35 37 39 40 42 43 43 43 43
15 15 15 11 11 13 14 15 16 17 19 20 21 21 20 20 19 19 19 19 19 19 20 21 22 23 24 24 25 26 27 29 30 33 35 37 39 41 42 43 45 45 44 43
15 15 14 12 15 15 15 15 16 17 19 20 20 20 20 19 19 19 20 20 20 21 21 22 23 24 25 26 27 28 29 31 32 34 37 39 40 42 44 45 45 46 44 43
16 16 16 16 17 17 16 16 17 19 19 20 19 20 22 21 21 21 22 22 22 23 23 24 25 26 27 28 29 31 32 33 34 37 39 41 43 44 46 46 46 45 44 43
17 17 17 20 19 18 17 17 17 19 20 21 22 22 24 24 23 23 24 24 24 25 25 26 27 28 29 30 32 33 35 35 37 39 41 42 44 46 47 47 46 46 44 42
18 19 21 24 24 22 21 20 18 20 22 23 24 25 25 25 25 25 25 25 26 26 27 27 28 29 31 32 34 35 37 37 38 40 42 44 45 47 47 47 46 45 43 41
24 25 25 26 27 24 23 22 21 22 25 27 27 27 27 27 27 26 26 27 27 28 28 29 30 31 32 34 36 37 38 39 40 41 43 45 46 47 48 48 47 45 43 41
26 28 28 26 24 22 23 24 25 26 27 28 28 29 29 28 28 28 28 28 29 30 31 31 32 34 35 37 38 39 40 41 42 44 45 45 46 48 48 48 46 44 42 41
27 27 27 29 28 25 25 27 28 28 29 29 29 30 30 30 30 30 30 31 31 32 33 33 35 36 38 39 40 41 42 44 45 45 45 45 47 48 48 47 45 44 42 41
31 29 28 31 30 29 28 29 30 30 30 31 31 31 32 32 32 32 32 33 34 34 35 36 37 39 39 40 42 44 45 46 46 46 46 47 48 48 47 46 44 43 41 40
29 29 31 32 31 31 31 32 32 32 32 32 33 33 33 33 34 34 35 35 36 37 38 39 40 41 41 42 44 46 47 47 48 47 47 48 48 48 46 45 44 42 41 39
29 30 31 32 32 32 32 33 33 34 34 34 34 34 34 35 36 36 37 38 38 39 41 42 42 43 44 45 46 47 48 48 48 48 48 48 48 48 46 44 43 42 40 39
30 31 32 32 33 33 34 34 34 35 35 35 35 35 36 37 38 39 40 40 41 42 43 44 45 46 47 47 48 49 49 48 48 48 49 49 49 48 46 44 43 41 39 38
31 32 33 33 34 34 35 35 35 36 36 36 37 37 38 39 40 40 41 42 43 44 46 46 47 47 48 49 50 50 49 49 49 49 49 49 48 47 46 44 42 40 38 37
33 33 34 34 35 35 36 37 37 37 38 38 38 39 39 40 41 42 43 44 46 47 48 48 49 49 50 51 51 50 50 51 51 50 50 49 48 47 45 43 42 40 37 35
35 35 36 37 37 37 38 39 39 39 39 40 40 41 41 42 44 45 46 47 48 49 50 50 51 51 52 52 52 52 52 51 51 51 50 49 48 46 44 43 40 38 36 34
36 36 37 38 38 39 40 40 40 41 41 42 43 44 45 45 46 47 48 49 50 52 52 52 53 53 54 54 54 53 52 52 52 51 50 49 47 45 43 41 38 36 34 33
36 37 38 39 40 40 41 42 43 44 44 45 46 46 47 48 48 50 50 51 53 53 53 54 54 54 54 54 55 54 54 53 52 51 50 48 45 43 41 38 36 34 33 31
37 38 39 40 41 42 43 44 45 46 46 47 48 49 50 50 51 52 53 53 54 54 55 55 55 56 56 55 55 54 53 52 50 49 47 44 42 40 37 35 32 31 31 29
39 40 41 42 43 44 45 46 47 48 48 49 50 51 52 52 53 53 54 55 56 56 55 55 56 56 55 55 54 53 51 50 48 46 43 41 38 36 34 32 30 29 28 27
42 43 44 44 45 46 47 48 49 49 50 51 51 52 52 53 53 54 54 55 56 56 55 55 55 54 53 52 51 50 48 47 44 41 39 37 35 32 31 30 28 27 25 23
44 45 46 46 47 48 49 49 50 50 51 52 52 53 53 54 54 54 55 55 55 54 54 53 52 51 50 49 47 45 43 41 39 37 34 33 31 29 28 26 25 24 22 20
46 46 47 48 48 49 49 50 50 51 51 52 52 53 53 54 54 54 54 53 53 52 50 49 48 47 46 44 43 41 39 36 34 32 30 29 27 26 25 24 22 21 20 19
46 47 47 48 48 49 49 50 50 50 51 51 51 51 51 51 51 51 50 49 48 48 46 45 44 43 41 40 38 36 34 31 30 28 27 26 24 23 22 20 20 19 18 17
46 46 47 47 48 48 48 48 48 48 48 48 48 47 47 47 47 46 45 45 44 43 42 40 40 38 36 34 32 30 28 27 26 24 23 22 21 20 19 19 18 17 15 15

GEFSNGP_500_meanwind_102.txt.gz
Wind_Speed
17 17 17 16 16 17 17 16 15 14 15 14 13 12 10 9 7 6 6 7 8 8 9 9 10 11 12 13 14 15 17 18 19 21 22 24 25 27 29 30 32 33 35 36
17 17 17 17 17 18 17 17 18 16 15 14 14 12 11 10 9 8 8 8 9 10 11 12 12 13 14 15 16 17 19 20 21 23 25 26 28 29 30 32 33 35 36 38
18 18 17 16 16 17 18 18 19 18 16 15 14 13 12 11 11 10 10 10 11 12 14 14 15 15 16 17 18 19 21 22 24 25 27 28 29 31 32 33 34 36 38 39
20 20 18 15 17 17 18 19 19 19 17 16 16 15 13 12 12 12 12 12 13 14 15 16 17 18 19 20 21 22 23 24 25 27 28 29 31 32 34 35 36 37 39 40
21 20 18 18 18 18 19 21 20 19 18 17 16 16 14 13 13 13 14 14 14 15 16 18 19 20 21 22 23 24 26 26 27 29 30 32 33 34 35 37 38 39 40 42
22 21 20 18 19 19 19 22 21 20 19 19 18 17 15 15 15 15 16 17 17 17 18 20 21 22 23 23 25 26 27 28 29 31 32 34 35 35 37 38 39 40 41 42
22 21 20 19 18 20 21 20 20 21 21 20 19 18 18 18 18 18 18 19 19 20 20 22 23 24 25 26 27 28 29 30 32 33 34 35 36 37 39 39 40 41 42 42
23 22 21 20 19 20 21 20 20 20 20 21 21 20 19 19 18 18 20 20 21 22 23 24 25 26 27 28 29 30 31 32 33 35 36 37 38 39 40 40 41 42 42 42
24 24 22 21 20 21 22 21 20 20 22 22 21 21 21 21 21 20 22 23 24 25 25 26 27 28 29 30 31 32 32 33 35 36 37 38 40 41 41 41 42 43 43 43
23 22 22 23 22 22 22 21 21 22 22 22 22 22 21 22 23 23 23 24 26 27 28 29 29 30 31 32 33 34 35 36 37 38 39 40 41 42 42 42 43 43 44 44
23 23 21 21 22 23 22 21 22 23 23 22 23 23 23 23 24 25 26 27 28 29 29 30 31 32 33 34 35 36 37 38 39 40 40 41 42 43 43 44 44 44 44 44
24 24 23 23 23 23 23 22 23 24 24 23 22 23 24 25 26 27 28 29 30 30 31 32 33 34 35 36 37 38 39 40 41 41 42 43 44 44 44 45 45 45 45 45
25 25 25 24 25 25 25 25 24 23 23 24 24 25 25 26 28 29 30 31 31 32 34 34 35 36 38 39 40 41 41 41 42 43 44 45 46 46 46 46 46 47 46 45
25 26 27 27 27 25 25 25 25 25 25 25 25 26 27 28 29 30 31 33 34 35 36 37 38 39 40 40 42 43 43 43 44 45 46 47 47 47 47 48 48 47 47 46
25 26 26 26 26 26 27 27 27 27 27 27 27 28 29 30 31 32 34 35 36 37 38 39 39 40 41 42 43 44 44 45 46 47 48 48 49 49 50 49 49 49 47 47
25 25 25 25 26 27 28 28 28 28 29 29 29 30 31 32 33 34 35 36 37 38 39 40 41 42 43 44 45 46 47 48 48 49 50 50 51 51 50 50 50 49 49 47
25 25 25 25 26 27 28 28 29 30 31 31 31 32 33 33 34 35 37 38 39 40 41 42 43 45 46 47 47 48 49 50 51 51 51 52 52 52 51 51 50 50 48 47
25 25 25 25 26 27 28 29 30 31 32 32 33 34 34 35 36 37 39 40 41 42 43 44 46 47 48 49 50 51 51 52 52 53 53 53 53 53 52 52 50 49 47 44
24 25 25 26 27 28 29 30 31 32 34 35 36 37 38 39 40 40 41 42 43 44 45 46 48 49 50 51 52 53 53 54 54 54 54 54 54 53 52 50 49 47 44 41
25 25 27 28 29 31 32 34 35 36 37 38 39 40 41 42 43 43 44 44 45 46 47 48 49 50 51 52 53 54 55 55 54 54 54 53 52 51 49 47 46 43 41 38
27 28 30 31 32 33 35 37 38 39 40 41 42 42 43 44 45 45 46 47 48 49 50 50 51 52 53 53 54 54 54 54 53 53 52 50 49 48 45 43 41 39 36 34
29 31 33 34 36 37 38 39 40 41 42 43 44 44 45 46 47 48 49 50 50 51 51 52 52 53 53 53 53 52 52 52 51 50 49 48 46 43 41 38 36 34 32 30
33 35 37 38 39 40 40 41 42 43 44 45 46 47 48 48 49 50 50 51 51 51 52 52 51 51 51 51 51 51 50 49 48 47 45 44 41 39 36 34 32 30 28 27
38 39 40 41 42 42 43 44 45 46 46 47 48 48 49 49 49 50 51 51 51 50 50 50 49 49 49 49 49 48 47 45 44 42 40 38 36 34 32 30 28 27 25 24
40 41 43 43 44 45 45 46 46 47 47 47 47 48 48 48 49 49 48 48 48 48 47 47 47 46 46 45 44 43 42 40 38 36 34 32 30 29 27 25 24 23 21 20
42 42 43 44 45 46 46 46 46 46 46 46 46 46 46 46 46 46 46 45 45 45 44 44 43 42 41 40 39 37 35 34 32 31 28 27 25 23 21 20 19 18 18 18
43 44 44 44 44 44 44 44 44 44 44 44 43 43 43 42 42 42 42 42 41 41 40 39 39 38 37 36 34 32 30 28 27 25 23 22 21 19 17 16 16 16 16 16

GEFSNGP_500_meanwind_108.txt.gz
Wind_Speed
18 18 19 19 18 19 19 18 17 16 16 14 14 14 13 14 14 14 14 15 14 14 14 14 14 13 13 13 13 13 14 14 14 15 16 17 18 19 21 23 24 25 27 28
19 20 21 20 18 19 19 18 17 16 16 15 15 15 15 15 15 15 16 16 16 15 14 15 15 15 14 15 15 16 16 16 17 18 19 20 21 22 23 25 26 28 29 30
19 20 20 19 18 19 19 18 18 17 16 17 16 16 16 16 16 16 16 16 16 16 16 16 16 17 17 17 18 18 19 20 20 21 22 22 23 25 26 27 29 30 31 32
19 19 19 16 17 19 18 18 17 16 16 16 16 16 17 17 17 18 18 18 18 18 18 18 18 18 19 19 20 20 21 22 23 24 25 25 26 28 29 30 31 31 32 34
21 20 18 17 19 19 18 17 16 15 15 16 17 17 16 17 18 19 20 20 20 20 20 20 20 21 21 21 21 22 23 24 25 26 27 28 29 30 31 32 33 33 35 36
22 22 20 17 19 19 18 16 15 16 16 17 18 18 18 19 19 20 21 22 22 22 22 22 22 22 22 23 23 24 25 25 27 28 29 30 31 32 33 34 35 36 37 37
24 23 21 18 19 19 19 17 17 18 19 19 18 19 20 21 21 22 22 22 22 23 23 24 24 24 24 24 25 26 27 28 29 30 31 32 33 34 35 36 37 37 38 39
23 23 21 19 19 20 19 19 19 19 19 19 19 20 21 22 23 23 23 24 24 24 24 25 25 24 25 26 27 28 29 30 31 32 33 34 35 36 37 38 38 39 40 40
22 21 20 19 19 20 20 20 20 20 20 19 20 21 22 23 24 23 24 25 25 26 26 26 25 26 27 28 28 29 30 31 33 34 35 36 38 38 39 40 40 41 42 42
20 20 19 18 18 19 20 21 21 21 21 22 22 23 24 25 25 24 24 25 27 27 26 27 27 27 29 30 30 31 33 34 35 36 37 39 40 41 42 42 43 44 43 44
20 19 19 19 19 19 20 21 21 22 23 24 24 25 25 26 26 25 25 26 27 28 27 28 28 29 30 31 33 34 35 36 38 39 40 41 42 43 44 44 45 45 45 46
20 20 20 19 19 20 21 21 21 21 22 24 25 25 26 26 27 27 27 27 27 28 29 30 31 32 32 34 35 35 37 39 40 41 43 44 45 45 45 46 46 47 48 49
21 22 23 23 22 22 22 21 21 21 22 23 24 25 26 27 28 28 28 28 28 29 30 31 33 34 35 36 37 38 40 41 42 44 45 46 47 47 47 47 48 49 50 51
22 22 22 23 23 22 21 21 22 22 23 24 24 25 25 26 26 27 27 28 29 30 31 33 35 36 37 38 39 41 42 44 45 45 46 47 48 49 50 50 50 51 52 53
23 23 23 23 23 23 23 23 23 23 23 24 25 25 26 26 27 28 29 30 31 32 34 35 36 38 39 40 42 43 44 45 47 48 49 50 51 52 53 53 54 54 54 54
22 22 23 23 23 23 24 25 24 24 25 25 26 26 27 28 28 29 30 31 32 33 35 36 38 39 41 42 44 45 47 48 49 50 51 53 54 55 55 56 56 56 56 56
22 22 23 23 24 24 25 25 25 25 26 26 26 27 28 28 29 31 32 33 34 36 37 39 40 41 43 44 46 47 49 50 51 53 54 55 56 57 57 58 58 57 57 57
23 24 24 24 24 24 25 25 26 26 27 27 28 28 29 30 32 33 34 35 37 38 40 41 42 44 45 47 48 49 51 52 53 54 55 57 57 58 58 58 58 58 57 56
23 24 24 23 23 23 25 26 26 27 27 28 29 30 31 33 34 35 36 38 39 41 42 43 45 46 47 48 50 51 52 53 55 56 57 58 58 58 58 58 57 56 55 54
23 23 23 23 23 24 25 26 27 27 28 30 31 33 34 36 37 38 39 41 42 43 44 45 47 48 49 51 52 53 54 55 56 57 57 57 57 57 56 56 55 54 53 51
23 23 23 24 24 25 26 27 29 30 31 32 34 36 37 38 40 41 42 43 44 45 46 47 49 50 51 52 53 54 54 55 55 55 55 55 55 54 53 52 51 50 48 47
24 25 26 26 27 28 29 31 32 33 35 36 38 39 40 41 42 43 44 45 46 47 48 49 50 51 52 52 53 53 54 54 54 54 53 52 51 50 49 48 47 45 43 41
28 29 29 29 30 31 32 34 35 36 38 39 40 41 42 43 44 45 45 46 48 48 49 49 50 50 51 52 52 52 51 51 51 51 50 48 47 46 44 42 40 38 36 34
32 32 33 33 34 35 36 37 39 40 41 42 43 43 44 44 45 46 46 47 47 47 47 48 48 49 49 49 48 48 48 48 47 46 44 42 41 40 38 35 33 31 29 28
35 36 36 37 38 39 40 41 42 43 44 44 45 45 45 46 46 45 45 45 45 45 45 45 45 45 45 45 44 44 42 42 41 40 38 37 35 33 31 29 28 26 25 25
38 39 39 40 41 42 42 43 43 44 44 44 44 44 44 44 44 44 43 43 42 42 42 42 41 41 41 40 39 38 37 37 36 34 33 31 30 29 27 26 25 25 24 23
39 39 40 41 41 42 42 42 42 42 42 42 42 41 41 41 40 40 40 39 40 40 39 39 38 38 37 36 35 35 34 33 31 30 29 28 26 25 24 23 22 21 21 19

GEFSNGP_500_meanwind_114.txt.gz
Wind_Speed
24 22 21 20 18 18 17 16 15 14 15 15 15 15 14 14 13 13 13 13 13 13 13 14 14 15 16 16 17 18 19 20 20 21 21 22 22 23 23 24 24 25 25 26
24 24 22 21 19 18 18 18 16 15 15 17 18 17 16 15 15 15 15 15 15 15 15 16 17 17 18 19 19 20 21 22 22 23 23 24 25 25 26 26 27 27 28 28
22 22 21 19 18 18 19 19 18 16 16 17 18 19 18 17 16 16 17 16 16 16 17 17 18 19 20 21 22 22 23 24 25 25 26 26 27 28 28 29 29 29 30 30
22 22 22 18 18 19 18 18 19 18 18 18 18 18 19 19 18 18 18 18 18 18 18 19 20 21 22 23 24 25 26 26 27 28 28 29 29 29 30 30 30 30 30 31
24 23 21 20 19 18 18 17 18 18 18 18 18 18 19 20 19 20 20 20 20 20 21 22 22 23 25 25 26 27 28 29 30 30 30 30 31 31 32 31 31 31 32 32
24 23 21 21 20 19 19 18 18 19 19 20 19 20 21 21 21 21 22 22 22 23 24 25 26 27 27 27 28 30 31 32 32 32 32 32 33 33 33 32 32 33 33 33
23 21 21 22 20 19 19 20 19 20 21 21 21 21 22 22 22 22 23 24 24 25 26 27 28 28 28 28 30 31 32 33 33 33 33 34 34 34 34 34 34 35 35 35
22 22 22 22 21 22 21 21 21 22 22 22 22 23 23 24 24 24 24 25 26 27 28 28 29 29 30 30 31 32 33 33 33 34 35 35 34 35 35 36 37 37 37 37
22 22 23 22 23 23 23 22 22 22 23 23 24 24 25 25 26 26 26 26 27 28 29 30 30 30 32 32 33 33 34 34 34 35 35 36 36 37 38 39 39 39 40 41
21 23 24 24 23 23 23 22 22 22 24 24 24 25 25 26 28 28 28 28 29 29 29 30 31 31 32 33 34 35 35 35 35 36 37 37 38 38 39 40 41 42 43 44
21 22 22 23 23 23 23 23 23 23 23 24 25 26 26 27 28 29 30 31 31 31 32 32 33 33 34 35 36 36 36 36 36 37 38 39 39 40 41 42 43 44 45 46
21 21 21 20 21 22 22 21 23 23 24 24 25 26 27 28 29 30 31 31 32 33 33 33 34 34 35 36 36 37 37 38 38 39 40 41 41 42 43 44 45 46 47 48
20 21 21 21 21 22 22 22 23 23 24 25 25 26 27 28 29 31 32 32 32 33 34 35 35 36 36 36 37 37 38 39 40 41 42 43 43 44 45 46 48 49 50 51
21 21 22 22 22 23 23 23 23 24 24 25 25 25 26 26 27 28 30 31 31 32 32 33 34 35 36 37 38 39 39 41 42 43 44 45 46 47 48 49 50 51 53 54
21 21 21 21 22 22 23 23 24 24 24 24 25 25 26 27 28 28 29 30 31 31 32 33 34 35 36 38 39 40 41 42 43 45 46 47 48 49 50 52 53 54 55 56
20 20 20 20 21 22 23 23 23 23 24 24 25 25 26 27 28 29 30 31 32 33 33 34 35 37 38 39 41 42 43 44 45 46 48 49 50 51 53 54 55 56 57 58
19 19 20 20 21 21 22 23 24 25 25 26 26 27 27 28 29 30 32 32 33 33 34 35 36 37 39 40 41 42 43 45 46 48 49 51 52 53 54 56 57 57 58 59
19 20 20 20 21 22 23 24 25 25 27 27 28 29 29 30 31 32 33 33 35 36 37 38 38 39 41 42 43 44 45 47 48 49 51 52 53 55 56 57 58 58 58 58
19 20 21 22 23 24 25 26 27 27 28 28 29 30 31 32 33 34 35 36 37 38 39 40 40 41 42 44 45 46 47 48 50 51 53 54 55 56 56 56 56 56 57 56
21 22 23 23 24 24 24 25 26 28 29 31 32 33 34 34 35 36 36 37 38 39 40 41 42 43 44 45 47 48 49 50 51 53 53 54 55 55 55 55 55 54 54 53
22 23 23 24 24 25 26 28 29 30 32 33 33 33 34 35 36 37 37 38 39 40 41 43 43 44 46 47 48 49 50 51 51 52 53 53 53 53 52 51 51 50 49 48
23 24 25 25 26 27 29 31 32 33 33 34 35 35 36 37 38 39 40 41 41 42 43 44 45 46 47 48 48 49 49 50 50 50 50 50 49 48 47 46 45 44 43 42
24 25 26 27 28 29 31 32 33 34 35 35 36 37 38 39 39 41 42 42 42 43 44 45 46 46 47 47 47 47 47 47 46 45 44 44 43 42 41 41 40 40 40 39
27 28 28 30 31 32 33 34 36 36 37 38 38 39 40 41 41 42 43 43 44 44 45 45 45 45 45 45 44 44 43 43 41 41 40 39 39 38 38 38 38 37 36 35
29 30 30 31 33 34 35 36 37 38 39 39 40 41 42 42 43 43 43 44 44 44 44 44 44 43 42 42 41 40 40 39 38 38 37 37 36 36 35 35 34 32 32 31
30 32 33 34 35 36 37 37 38 39 40 40 40 41 41 42 42 42 42 42 41 41 41 41 40 39 38 38 38 38 37 36 35 35 35 34 33 32 31 30 29 29 28 27
32 33 34 34 35 36 36 37 37 38 38 39 39 39 39 39 39 39 39 39 38 38 37 37 37 36 36 36 36 35 34 33 33 33 32 30 29 28 27 26 26 25 24 23

GEFSNGP_500_meanwind_120.txt.gz
Wind_Speed
28 26 25 26 25 23 23 21 20 19 21 21 22 18 16 17 15 15 14 13 13 12 12 12 12 13 13 14 14 15 15 16 16 17 17 18 19 20 21 22 23 24 25 25
29 28 27 26 22 22 21 19 19 20 21 22 23 21 19 19 18 16 15 14 15 14 13 13 14 14 15 15 16 17 17 18 18 19 19 20 21 22 23 24 25 26 27 27
28 28 29 27 21 20 19 17 19 21 21 24 24 23 22 20 18 15 17 17 16 16 15 15 15 16 17 17 18 18 19 20 21 22 22 23 23 24 25 26 27 28 29 29
29 30 32 26 22 20 20 22 22 23 24 26 26 24 22 20 20 18 18 18 18 17 17 18 18 18 18 19 19 19 21 22 23 24 24 25 26 27 28 29 30 30 31 32
28 27 27 25 24 24 23 23 25 26 25 26 26 25 23 21 21 19 18 20 20 19 19 19 19 20 20 20 21 22 23 24 25 26 26 27 27 28 29 31 31 33 34 34
30 29 26 24 26 27 25 26 26 26 25 25 26 25 24 21 21 20 19 20 20 21 21 20 20 21 22 23 23 24 25 26 28 29 29 29 29 30 31 31 32 33 34 34
29 30 29 27 27 28 27 26 26 25 25 24 25 26 24 23 21 21 21 21 22 23 23 23 23 23 24 24 25 26 27 27 28 29 30 30 31 31 33 33 33 33 34 36
27 28 29 27 25 26 24 23 24 23 24 24 24 24 25 24 22 22 23 23 23 24 24 25 25 26 25 25 26 27 28 30 31 31 32 32 32 33 34 35 35 36 37 37
26 26 28 28 27 25 24 23 21 23 24 24 25 25 25 25 24 25 25 25 25 25 26 26 27 27 28 28 29 30 31 31 32 33 34 34 34 34 35 36 38 38 39 39
26 27 27 27 27 27 27 26 22 23 24 26 26 26 26 26 26 26 26 26 27 27 28 28 28 29 30 31 32 32 32 33 33 34 35 36 35 35 37 38 38 39 40 41
26 25 25 24 22 23 23 22 24 24 24 25 25 26 27 27 27 27 27 28 28 29 30 30 30 31 31 32 33 34 35 35 36 36 37 37 37 37 38 39 40 41 42 44
18 20 22 22 21 20 22 22 23 24 25 25 27 27 27 28 28 28 28 29 29 29 30 30 31 32 33 35 36 36 37 37 37 38 39 38 38 38 38 39 41 42 43 45
18 18 18 19 19 19 20 21 22 24 25 25 26 26 25 26 26 27 28 29 30 30 30 31 32 33 34 35 37 38 38 38 38 38 39 38 39 40 41 41 43 44 45 47
19 18 18 19 19 19 20 21 21 21 22 23 23 23 23 24 25 25 26 27 28 30 31 32 33 33 33 35 36 38 38 39 39 39 40 40 41 42 42 43 44 46 47 48
18 18 19 18 19 20 21 20 20 21 22 22 23 23 23 23 24 24 25 26 27 28 30 31 32 33 34 34 35 36 37 38 39 40 40 41 42 43 44 45 46 48 49 50
17 17 17 18 18 19 19 19 20 21 21 22 22 22 24 24 25 26 26 27 28 30 30 31 31 33 34 35 35 36 37 38 39 40 41 42 43 44 46 48 49 51 51 52
16 16 16 17 18 18 18 19 19 20 22 23 24 24 26 27 27 27 27 28 29 30 31 32 33 34 34 35 36 37 39 40 41 42 43 44 45 47 48 49 51 52 52 52
16 17 16 17 18 18 18 19 21 22 21 22 23 25 26 27 27 28 29 30 31 32 33 33 34 35 36 37 38 39 41 42 43 44 45 46 47 48 49 50 51 51 50 49
16 16 16 17 18 19 20 21 22 23 23 24 25 25 26 27 28 29 30 32 33 33 34 35 36 37 37 38 39 41 42 43 44 45 46 47 47 48 48 48 48 48 48 48
17 17 18 18 18 19 20 21 22 24 24 24 25 26 28 29 30 31 32 33 34 35 36 37 38 39 40 40 41 43 43 44 45 46 47 47 47 47 47 47 46 47 47 47
17 18 18 18 19 20 21 23 24 25 26 27 28 29 30 31 32 33 34 35 35 36 37 39 39 40 41 42 43 44 44 45 46 46 46 46 46 46 46 46 46 46 45 45
18 19 20 21 21 22 23 24 25 27 27 28 29 30 32 33 35 36 37 37 37 38 39 40 41 42 43 44 45 45 45 45 46 45 45 45 44 45 45 45 44 44 44 43
20 21 22 23 23 25 26 28 29 29 30 31 32 33 34 35 36 37 37 38 39 39 40 41 42 43 44 44 44 45 44 44 44 44 43 43 43 43 43 42 42 42 42 41
21 22 23 24 26 27 28 29 30 31 32 33 34 35 36 36 37 38 39 39 40 41 42 42 42 43 43 43 43 43 42 42 42 41 41 42 42 41 40 39 38 39 39 38
24 25 25 26 28 29 30 31 32 33 34 35 35 35 36 36 37 38 38 39 40 41 41 41 42 42 41 40 40 39 39 38 38 39 38 38 37 37 36 36 36 36 36 35
25 26 27 29 30 31 32 32 33 34 35 35 35 35 36 37 37 38 38 39 39 39 39 39 39 39 38 37 36 36 36 36 35 34 33 32 32 31 31 31 31 31 31 30
27 27 28 29 30 31 31 32 32 33 33 34 34 35 36 36 37 37 37 37 37 37 37 36 36 35 34 34 34 34 33 33 32 30 30 29 28 27 26 26 26 26 26 25

GEFSNGP_500_meanwind_126.txt.gz
Wind_Speed
32 30 28 28 28 28 27 26 25 24 23 20 19 18 15 12 11 11 9 8 7 7 8 9 10 10 11 11 11 12 12 13 13 14 15 16 17 18 19 19 20 20 21 22
31 31 31 31 30 30 30 27 26 26 26 23 22 20 19 15 13 12 11 9 9 9 10 11 11 12 12 13 13 13 14 15 15 16 17 18 19 19 20 21 22 22 23 23
31 30 31 32 31 31 29 28 28 28 26 25 24 21 18 16 13 13 11 11 11 10 11 11 12 13 14 15 15 15 15 16 17 18 19 19 21 22 22 23 24 24 25 26
32 30 30 28 30 29 29 29 29 28 27 27 26 23 20 17 15 14 12 13 12 12 12 13 14 14 15 16 16 16 17 17 17 19 21 21 22 23 24 24 25 26 27 28
30 30 29 27 27 27 27 28 29 29 26 26 26 24 21 18 15 14 13 12 12 13 15 15 16 16 17 17 18 18 18 19 19 21 22 23 24 25 26 27 28 28 29 30
28 30 28 25 26 26 28 28 28 28 26 25 24 24 21 18 17 15 14 14 15 16 17 17 17 18 19 20 20 20 21 21 22 23 23 24 25 26 28 28 28 28 28 29
27 27 26 24 26 27 28 27 27 28 28 28 26 23 20 19 17 17 17 16 16 17 17 18 19 19 20 21 22 23 23 24 24 24 24 25 25 27 28 28 29 30 31 31
24 25 24 23 24 25 28 28 28 28 28 27 25 23 22 20 19 18 17 17 18 18 18 20 21 21 21 22 23 24 25 26 26 27 26 26 27 27 28 29 31 32 33 33
22 22 22 22 22 23 24 25 26 27 26 27 27 24 22 21 20 19 18 18 18 19 20 21 22 22 23 24 26 26 26 27 27 27 27 28 29 29 31 32 33 33 34 35
19 20 20 20 21 21 21 23 24 23 23 24 23 22 21 21 20 19 18 19 20 21 21 22 23 24 24 26 28 28 28 28 28 28 29 30 31 32 33 34 34 35 36 36
16 17 17 16 18 19 18 20 20 19 19 20 19 18 18 17 17 17 19 20 21 20 21 23 24 25 26 27 28 29 29 30 30 30 30 32 33 34 35 35 36 36 37 38
13 13 14 14 14 15 15 15 14 14 14 15 15 16 15 15 16 17 19 19 20 21 22 24 25 26 27 28 29 30 32 33 33 34 34 35 36 37 38 37 38 39 39 40
10 10 11 12 12 12 12 12 11 12 12 13 13 14 14 15 17 18 19 20 21 21 22 23 24 26 27 29 30 30 32 33 34 35 36 37 38 38 38 39 39 40 41 42
11 10 10 11 11 10 10 10 10 11 12 13 13 14 15 17 18 19 19 20 22 22 23 24 25 26 27 27 29 30 32 33 34 35 36 37 38 38 40 40 41 41 41 42
10 10 9 9 9 10 9 8 9 11 12 13 13 14 15 15 16 17 18 19 21 22 23 24 25 26 27 28 29 30 32 33 34 35 37 38 39 40 40 41 42 42 43 44
9 9 10 9 9 10 10 10 10 11 11 12 12 13 13 14 15 17 19 20 21 23 24 25 26 27 28 29 31 32 33 35 36 38 39 41 41 42 43 44 44 45 46 47
10 10 10 10 9 9 9 10 9 10 11 12 13 13 15 16 17 18 20 21 23 24 26 26 27 28 29 31 32 34 36 37 38 40 41 42 43 43 44 45 46 46 46 47
9 9 10 10 10 9 10 10 10 11 12 13 14 15 16 17 18 19 21 22 23 24 26 27 29 30 31 32 34 35 37 38 40 41 42 43 44 45 45 45 46 46 46 47
10 10 10 10 10 9 10 11 12 13 14 15 16 17 18 19 20 20 22 23 24 26 27 29 30 32 33 34 35 37 38 40 41 42 43 43 44 45 45 45 45 46 46 47
11 11 11 10 11 11 12 13 14 15 16 17 18 19 20 21 22 23 25 26 27 28 29 30 32 34 35 36 37 39 40 41 42 42 43 44 44 44 44 45 46 46 46 46
11 11 11 12 12 13 13 14 15 16 18 19 20 21 22 23 24 26 27 28 29 31 32 33 35 36 37 38 39 40 40 41 42 42 43 43 43 44 44 44 44 44 44 44
11 12 13 13 14 15 16 16 18 19 20 21 22 24 25 26 27 28 29 30 32 33 34 35 37 37 38 39 39 39 40 41 42 42 42 42 42 42 41 40 40 40 39 39
13 14 15 16 16 17 18 19 20 21 22 23 25 26 27 28 29 30 31 32 33 34 35 36 36 37 38 38 39 40 41 41 41 41 40 40 39 38 37 37 36 36 36 36
16 16 17 18 19 20 21 21 22 23 25 26 27 28 29 29 30 31 32 32 33 34 35 36 37 37 38 39 40 40 40 39 39 38 37 36 35 34 34 33 32 33 33 33
17 17 18 19 20 21 22 23 24 25 26 27 27 28 29 30 31 32 33 33 34 35 36 37 37 37 38 38 38 38 37 37 36 34 34 33 31 31 30 30 29 29 29 28
18 18 19 20 21 22 23 24 25 26 27 27 28 29 30 31 32 32 33 34 35 35 35 35 36 36 36 36 35 35 34 33 32 31 30 29 28 27 27 27 27 26 26 24
19 20 21 22 23 24 25 25 26 27 27 28 29 29 30 31 32 32 33 34 33 33 33 33 33 33 34 33 32 31 30 29 28 27 26 26 26 25 25 25 24 24 23 21

GEFSNGP_500_meanwind_132.txt.gz
Wind_Speed
25 26 25 24 25 26 26 25 24 21 19 18 16 15 14 14 14 13 13 13 12 11 11 10 10 11 12 12 13 13 13 14 15 16 16 17 17 18 19 20 20 20 21 22
26 27 27 26 25 26 27 26 25 24 21 20 19 17 16 15 14 14 14 14 14 13 13 13 12 12 13 15 15 15 15 16 16 17 17 17 18 18 19 21 22 23 24 25
28 27 27 26 25 26 27 26 26 25 23 22 21 19 18 17 16 15 15 16 16 16 16 16 16 16 16 16 17 18 18 18 18 18 19 19 20 21 21 23 24 25 26 27
30 29 29 26 25 26 27 26 26 25 24 23 22 21 20 19 18 17 17 17 18 19 19 18 18 17 18 18 19 20 20 20 21 21 21 22 22 23 23 24 25 27 28 29
29 29 29 28 26 26 26 25 25 24 22 22 22 22 22 21 20 19 19 18 19 20 20 19 19 20 20 20 20 21 22 22 23 24 24 24 25 26 27 27 28 28 29 30
28 29 29 27 26 26 26 25 24 24 24 23 22 22 21 21 21 20 21 21 20 21 21 21 21 22 22 22 23 23 24 25 26 26 26 26 27 28 29 30 30 30 31 32
26 27 27 25 24 24 24 23 23 23 23 22 21 21 21 21 21 21 21 22 22 22 22 22 22 22 23 24 24 25 27 27 27 27 27 28 29 29 30 31 32 32 32 33
23 23 22 22 22 22 22 22 22 22 22 21 21 21 21 21 22 22 21 22 23 23 24 24 24 24 24 24 25 27 28 28 28 28 28 29 30 30 31 32 32 32 33 34
21 20 20 20 21 21 20 20 21 21 20 20 20 21 21 22 22 23 24 24 24 24 25 26 25 25 25 26 26 27 28 28 29 30 30 31 32 33 33 34 34 34 35 36
18 18 18 18 18 17 17 18 19 20 19 20 20 21 21 21 22 23 24 25 26 27 27 27 26 25 25 26 27 27 27 28 30 31 32 33 34 34 35 35 36 37 37 38
15 15 16 16 15 15 16 17 18 18 19 19 18 19 20 21 21 22 23 24 25 26 27 27 25 24 24 25 26 26 27 29 30 31 32 33 34 34 36 35 36 37 38 40
14 13 13 14 14 14 15 16 16 17 17 17 17 17 19 20 20 20 21 22 23 23 24 25 25 24 24 25 26 27 28 30 31 32 33 33 34 34 35 37 37 37 38 39
13 12 12 12 13 13 13 13 14 14 14 14 16 17 17 17 17 18 19 19 21 21 22 24 25 25 25 26 27 28 28 29 30 31 32 33 34 35 35 37 38 39 39 41
13 12 12 12 11 12 12 12 12 13 13 13 13 13 14 14 15 15 16 16 18 20 21 22 23 24 25 26 27 27 28 29 30 31 32 33 35 36 37 38 39 41 42 43
12 13 12 11 11 10 11 10 10 10 11 11 12 12 12 12 13 14 15 15 16 17 19 21 22 23 24 25 26 28 29 30 31 32 34 35 36 37 38 40 42 43 44 45
11 11 10 10 9 10 10 9 9 9 10 11 11 11 11 11 12 12 14 15 16 18 20 21 22 24 25 26 28 29 30 32 33 35 36 37 38 40 41 43 44 45 46 47
12 11 10 10 9 9 9 9 9 10 10 10 10 11 11 12 12 13 14 15 16 18 19 21 22 24 26 27 28 30 32 33 35 36 37 39 40 41 43 44 45 46 47 48
11 11 10 10 10 9 9 9 10 10 10 11 11 11 12 13 13 14 16 17 19 20 21 23 25 26 28 29 30 32 34 35 36 38 39 40 41 43 44 45 46 47 48 48
12 11 10 10 10 9 8 8 9 9 10 10 11 12 13 14 15 17 18 20 21 23 24 26 28 29 31 32 34 35 36 37 38 40 41 42 43 44 45 46 47 47 47 47
11 11 11 10 10 9 8 8 9 9 10 11 12 13 15 16 18 19 20 22 24 25 27 28 30 32 34 34 35 37 38 39 41 42 43 44 45 46 47 47 48 47 47 46
11 11 11 10 10 10 10 9 9 10 11 12 13 15 16 18 19 21 23 25 26 28 29 31 33 34 35 36 37 39 40 41 42 43 44 45 46 47 47 46 45 44 43 42
11 11 10 10 11 11 10 11 11 13 13 14 16 17 19 21 23 25 26 27 29 30 32 33 35 36 37 38 39 40 41 42 42 43 44 44 44 43 43 42 41 40 39 38
12 11 12 12 12 12 12 13 14 15 17 18 19 21 22 24 25 27 28 29 31 32 33 34 35 37 38 38 39 39 39 40 40 40 41 41 40 39 38 37 37 36 35 35
13 12 13 13 13 14 15 16 17 19 20 21 22 23 25 26 27 28 30 31 32 33 34 34 36 36 37 37 37 37 37 37 38 38 38 37 37 36 35 34 33 33 33 33
13 13 13 14 15 16 18 19 20 21 22 23 24 26 27 28 29 29 30 31 32 33 34 34 35 35 35 35 35 35 36 36 35 35 35 34 34 33 32 31 30 30 30 29
15 15 15 16 17 18 19 20 21 22 24 25 26 26 27 28 29 30 30 31 32 33 33 33 34 34 34 34 33 33 32 32 31 32 32 31 30 29 28 27 26 26 26 25
16 16 17 18 19 20 20 21 22 24 25 26 26 27 28 28 29 30 30 31 32 32 33 33 33 33 32 32 31 31 31 31 30 30 29 28 27 26 24 24 24 24 23 24

GEFSNGP_500_meanwind_138.txt.gz
Wind_Speed
22 22 21 21 21 21 21 20 19 18 18 18 18 16 15 13 13 13 11 10 9 9 9 8 8 8 8 9 9 10 11 12 13 14 16 16 17 18 18 19 19 20 21 21
23 23 22 23 22 22 22 21 21 20 20 20 20 19 17 16 15 14 13 11 10 11 11 11 11 10 10 10 10 11 12 13 14 15 17 18 18 18 18 19 20 20 21 22
22 23 23 24 22 22 22 23 23 22 22 21 22 20 19 19 18 16 15 14 13 12 12 13 13 13 12 12 12 13 13 15 16 17 17 18 19 19 19 20 21 22 22 23
23 23 23 24 23 23 23 23 24 24 24 22 22 21 21 20 20 19 18 17 16 15 14 14 14 14 14 14 14 15 15 16 17 18 19 20 20 21 22 23 23 24 25 26
23 22 23 24 22 22 23 24 24 25 24 24 23 23 23 23 23 22 21 19 19 18 17 17 16 16 16 16 16 16 17 18 19 19 21 22 23 23 24 25 26 27 27 28
23 23 24 25 23 23 24 25 24 24 24 24 25 25 25 24 24 23 22 22 21 21 20 19 18 18 18 18 18 18 19 20 21 22 23 24 25 26 26 27 28 29 30 31
23 23 25 25 23 24 25 25 24 24 24 25 26 26 26 25 24 25 24 23 23 23 22 21 20 20 19 20 20 20 21 22 23 23 25 27 27 27 28 29 30 31 32 33
23 24 26 24 24 24 25 24 23 24 24 24 25 26 26 26 25 25 25 25 24 24 24 23 23 23 22 22 22 23 23 24 24 25 26 27 29 29 30 31 32 33 34 35
23 23 23 23 24 24 24 23 23 23 24 24 24 24 24 25 25 25 25 25 25 26 25 24 24 25 24 24 25 25 26 26 26 27 28 28 30 31 32 33 34 34 35 36
21 21 21 21 22 22 23 23 22 23 23 23 23 23 24 24 24 24 24 25 25 25 25 25 25 25 25 26 27 26 26 27 28 29 29 30 30 31 33 34 35 37 38 38
20 20 19 19 19 19 20 20 21 21 21 22 22 23 23 23 23 23 23 24 25 25 25 25 25 25 26 26 27 27 28 29 29 29 30 31 32 32 32 32 34 35 37 38
19 19 18 18 17 18 18 17 18 19 20 21 21 21 22 22 22 23 24 25 25 25 26 26 26 27 28 28 29 29 29 29 29 29 29 30 31 31 31 33 34 35 36 38
18 18 18 18 17 17 17 17 16 16 17 18 19 20 20 21 21 22 23 24 25 25 25 25 26 26 26 27 28 29 28 29 29 28 28 28 29 30 32 34 35 36 37 38
16 17 16 16 15 15 15 15 15 16 17 17 18 18 18 19 19 19 20 21 22 22 22 22 23 24 24 25 26 26 27 27 28 28 28 29 30 31 32 33 35 36 38 39
16 16 16 17 16 16 14 14 14 15 15 15 16 16 16 17 17 17 17 17 18 18 18 18 19 20 20 21 22 22 23 24 24 25 27 28 30 32 33 34 36 38 40 41
16 16 16 16 15 14 13 13 13 13 13 13 13 13 13 13 12 12 12 12 13 13 14 14 15 16 17 18 20 21 22 24 25 26 28 30 31 33 34 36 38 40 41 42
16 15 15 14 13 13 12 12 11 12 12 11 10 10 9 9 9 9 9 10 11 12 13 14 15 17 18 19 20 22 23 25 26 28 30 32 33 35 37 38 40 41 42 43
15 14 14 13 12 12 11 11 10 10 11 11 10 9 9 9 9 10 10 11 12 13 14 16 17 18 19 21 22 24 26 27 29 31 33 34 36 37 38 40 41 42 44 45
15 14 14 13 13 13 12 11 11 11 11 10 10 11 11 11 11 12 13 13 15 15 17 18 19 20 22 23 25 26 28 30 32 33 35 36 38 39 40 41 42 43 44 45
16 15 15 14 14 13 12 12 11 11 11 11 11 11 12 12 13 13 14 15 16 18 19 20 21 23 25 26 28 30 31 33 35 36 38 39 40 40 41 42 43 42 42 42
16 15 15 14 14 14 14 13 12 12 12 12 12 13 13 14 14 15 16 18 19 21 22 24 25 26 28 30 31 33 34 35 37 38 39 39 39 40 41 41 41 40 40 40
16 16 15 15 15 15 14 14 14 14 13 14 14 14 14 15 16 17 19 20 22 23 25 26 27 29 31 32 33 34 35 36 37 38 38 38 38 39 39 38 38 38 37 37
15 15 14 15 15 15 15 15 14 14 14 14 14 15 16 17 18 19 21 22 23 25 26 28 30 31 32 33 34 35 36 37 37 37 36 36 36 36 36 35 35 35 35 35
16 16 16 15 15 14 14 14 14 14 14 15 16 17 18 19 21 22 23 24 26 27 29 30 32 32 33 34 34 35 35 35 35 34 34 34 34 34 33 33 33 33 33 32
16 16 16 16 16 15 15 15 15 15 16 17 18 19 20 22 23 24 26 27 28 30 31 31 32 32 32 33 33 33 34 33 33 32 32 31 31 31 31 31 31 31 30 30
15 16 16 16 16 16 16 16 17 17 18 19 20 21 22 24 25 26 28 29 30 31 31 31 31 32 32 32 32 32 32 31 30 30 29 29 30 30 30 29 29 28 27 27
15 16 16 16 16 16 16 17 18 19 20 20 22 23 24 26 27 28 29 30 31 31 31 31 31 31 32 32 31 30 30 29 29 28 28 28 29 28 27 27 26 26 25 24

GEFSNGP_500_meanwind_144.txt.gz
Wind_Speed
26 24 22 21 20 21 22 21 21 23 22 21 20 19 16 17 17 15 15 14 14 13 11 9 8 7 5 4 3 3 5 6 8 10 11 11 12 13 16 16 16 17 17 17
27 25 23 21 21 21 21 20 22 22 23 22 21 20 20 18 18 18 16 15 14 13 12 11 10 8 7 6 6 6 5 7 8 9 11 12 12 13 15 16 17 17 17 18
27 24 25 22 20 21 20 21 23 24 25 25 24 23 24 23 20 19 18 17 16 14 13 12 12 11 10 9 9 9 9 9 10 11 12 13 14 14 15 16 17 17 17 18
26 26 26 23 24 23 23 24 24 28 29 28 28 27 27 25 22 20 20 18 17 16 15 14 13 13 13 12 11 11 12 12 11 12 13 15 16 16 17 17 18 18 18 19
28 26 26 26 25 24 24 25 25 27 27 27 27 27 27 25 22 21 21 20 19 18 17 16 16 16 15 15 14 14 14 14 14 14 15 16 17 17 18 19 20 21 22 22
30 29 29 28 27 26 27 29 27 27 27 27 27 27 27 25 24 24 23 22 21 20 19 18 18 17 17 17 16 16 16 16 16 17 17 18 19 18 20 21 22 23 24 25
29 29 30 32 29 28 28 28 27 27 26 26 26 24 25 26 26 25 25 23 23 22 21 20 20 19 19 18 18 18 17 18 18 19 19 19 20 21 21 22 23 25 26 26
29 30 33 31 28 29 27 25 25 25 26 26 25 24 25 25 26 26 25 24 24 24 23 22 21 21 20 20 20 20 20 20 20 20 20 21 21 21 22 23 24 25 26 28
29 30 30 27 25 24 24 23 23 23 23 25 25 25 25 24 25 25 26 26 25 25 24 24 24 23 22 22 22 22 22 22 21 22 23 23 23 24 25 26 26 28 29 30
28 28 26 24 25 24 24 24 24 24 24 25 26 25 24 23 24 24 25 25 25 25 25 25 25 25 24 23 23 24 24 24 24 24 24 25 25 26 28 28 29 29 30 31
26 26 25 23 24 24 22 22 23 23 23 23 23 24 23 23 23 23 23 24 24 24 24 25 25 25 25 24 25 25 26 27 27 26 26 27 27 27 28 29 30 30 31 32
23 22 22 23 23 23 22 21 22 22 22 22 23 23 22 21 21 22 22 21 21 22 22 23 24 25 25 24 25 25 25 26 27 27 28 29 29 29 30 30 30 30 32 32
22 22 22 21 21 21 19 19 20 21 21 21 21 21 20 20 20 20 20 20 21 21 21 21 22 23 24 25 26 26 26 27 27 28 29 30 30 30 30 31 32 33 33 33
20 20 20 20 20 18 17 17 18 19 19 18 18 18 19 18 19 19 20 20 20 20 21 21 22 22 23 24 25 26 26 26 27 28 28 29 29 30 31 31 31 32 32 33
18 18 19 19 18 17 16 16 17 16 16 17 17 17 17 17 17 18 19 19 20 20 21 21 21 22 22 22 22 23 23 23 23 24 25 25 26 27 27 28 30 31 32 33
17 18 17 18 18 17 16 15 16 15 14 15 15 16 16 17 16 17 17 17 18 18 19 18 18 18 18 18 18 18 19 20 20 21 22 24 25 27 28 29 30 32 33 35
16 16 16 16 16 15 14 14 14 14 14 13 13 13 13 12 13 14 15 15 15 15 15 15 14 14 14 15 17 18 19 20 21 22 23 25 26 28 30 32 34 35 36 37
15 15 15 15 14 14 13 12 12 11 11 11 10 10 10 9 9 10 9 10 10 10 11 12 12 12 13 14 16 17 19 20 22 24 26 28 29 31 33 34 36 37 38 39
16 15 14 14 13 13 13 12 12 12 11 10 10 10 9 9 8 8 9 9 9 10 10 11 12 13 14 16 18 20 22 23 25 27 29 30 32 34 35 36 38 39 40 42
16 15 14 13 13 12 13 13 12 11 11 11 10 10 10 10 10 10 10 10 11 11 12 13 14 16 18 19 21 23 25 27 29 30 31 32 34 35 37 38 39 40 40 41
15 14 14 14 14 14 13 13 13 12 12 11 11 11 11 12 11 11 11 12 12 14 15 16 17 19 20 22 24 25 27 29 30 32 33 34 35 36 37 38 38 38 38 38
16 15 15 14 14 14 13 12 12 12 12 13 13 13 13 13 13 13 13 14 15 16 17 18 20 22 24 25 27 28 29 31 32 33 34 35 35 36 36 37 36 36 36 36
16 16 15 15 15 14 13 13 13 13 13 13 14 14 14 14 14 15 15 16 17 19 20 22 23 25 27 28 29 30 31 32 33 33 34 34 35 35 35 35 35 34 34 34
15 15 15 15 15 14 13 14 14 14 14 14 15 15 15 15 16 17 18 19 20 22 23 25 26 28 29 30 31 31 32 32 33 33 34 34 34 34 34 34 33 33 32 32
14 14 14 14 14 14 14 14 14 15 16 16 16 16 16 16 17 18 20 21 23 24 26 27 28 29 30 31 31 32 32 32 33 33 34 34 33 33 32 32 31 31 31 31
14 14 14 14 14 14 14 14 15 15 16 16 17 17 18 18 19 21 22 24 25 26 27 28 29 30 30 31 31 32 32 32 32 32 32 32 31 31 31 30 30 30 30 30
14 14 14 14 14 14 14 15 16 16 16 16 17 18 19 20 21 22 23 24 25 26 27 28 29 30 31 31 31 31 32 31 31 31 31 31 31 31 30 29 29 28 28 28